GEFSSE_prec_meanprecacc_204.txt.gz
Total_Precipitation_Accumulation
0.28 0.33 0.45 0.31 0.25 0.28 0.32 0.36 0.39 0.35 0.33 0.33 0.28 0.24 0.25 0.26 0.23 0.22 0.25 0.31 0.36 0.40 0.45 0.53 0.62 0.66 0.70 0.68 0.64 0.60 0.63 0.69 0.84 0.86 0.86 0.87 0.99 1.21 1.37 1.35 1.35 0.89 0.77
0.13 0.21 0.35 0.25 0.21 0.25 0.28 0.32 0.33 0.30 0.27 0.27 0.25 0.24 0.25 0.26 0.26 0.26 0.30 0.37 0.41 0.43 0.46 0.52 0.55 0.53 0.52 0.53 0.53 0.51 0.59 0.76 0.98 1.10 1.16 1.06 1.20 1.38 1.38 1.27 1.37 0.81 0.76
0.08 0.10 0.17 0.21 0.18 0.20 0.22 0.28 0.33 0.31 0.27 0.25 0.24 0.24 0.28 0.32 0.31 0.31 0.33 0.38 0.42 0.46 0.42 0.41 0.41 0.41 0.43 0.47 0.50 0.56 0.64 0.92 1.25 1.48 1.64 1.32 0.94 1.30 1.35 1.23 1.07 0.70 0.78
0.05 0.06 0.10 0.17 0.17 0.17 0.19 0.24 0.32 0.32 0.29 0.26 0.26 0.26 0.28 0.34 0.41 0.40 0.40 0.46 0.46 0.46 0.39 0.38 0.36 0.35 0.38 0.43 0.51 0.64 0.76 0.97 1.29 1.71 1.91 1.20 0.66 0.85 0.98 0.90 0.85 0.73 0.72
0.05 0.07 0.14 0.17 0.14 0.14 0.16 0.23 0.30 0.29 0.26 0.24 0.24 0.28 0.31 0.35 0.41 0.45 0.46 0.46 0.46 0.45 0.40 0.36 0.30 0.30 0.33 0.39 0.52 0.66 0.79 1.00 1.27 1.49 1.27 1.17 1.01 0.89 0.80 0.73 0.75 0.70 0.61
0.06 0.07 0.11 0.16 0.15 0.13 0.14 0.18 0.26 0.28 0.25 0.26 0.28 0.32 0.35 0.36 0.40 0.40 0.40 0.41 0.43 0.43 0.41 0.37 0.28 0.32 0.39 0.43 0.56 0.68 0.78 1.01 1.14 0.91 0.78 0.94 0.84 0.88 0.85 0.87 0.87 0.76 0.61
0.07 0.07 0.10 0.15 0.15 0.14 0.15 0.18 0.22 0.28 0.27 0.27 0.28 0.30 0.33 0.37 0.40 0.39 0.35 0.36 0.41 0.43 0.39 0.34 0.32 0.37 0.43 0.47 0.55 0.65 0.86 1.04 0.97 0.70 0.73 0.93 0.72 0.68 0.87 1.03 1.12 0.94 0.76
0.12 0.08 0.11 0.18 0.20 0.22 0.21 0.23 0.24 0.25 0.28 0.31 0.29 0.27 0.29 0.33 0.34 0.37 0.37 0.37 0.39 0.43 0.39 0.33 0.38 0.42 0.46 0.50 0.53 0.60 0.80 0.90 0.76 0.67 0.68 0.71 0.50 0.60 0.85 1.07 1.22 1.12 0.97
0.23 0.21 0.17 0.21 0.25 0.29 0.31 0.30 0.31 0.30 0.30 0.34 0.33 0.31 0.32 0.31 0.31 0.35 0.44 0.44 0.42 0.43 0.41 0.35 0.35 0.37 0.39 0.42 0.50 0.60 0.77 0.92 0.81 0.72 0.59 0.54 0.47 0.63 0.91 1.07 1.15 1.19 1.11
0.58 0.44 0.29 0.28 0.32 0.29 0.29 0.36 0.41 0.36 0.35 0.35 0.33 0.33 0.33 0.34 0.35 0.40 0.44 0.51 0.55 0.52 0.49 0.42 0.36 0.37 0.43 0.48 0.58 0.74 0.88 0.84 0.76 0.79 0.79 0.59 0.57 0.73 0.93 1.04 1.21 1.27 1.18
1.07 0.89 0.55 0.42 0.41 0.42 0.37 0.39 0.51 0.49 0.42 0.41 0.44 0.45 0.52 0.64 0.63 0.73 0.69 0.76 0.77 0.72 0.67 0.64 0.61 0.58 0.54 0.51 0.66 0.89 0.86 0.79 1.02 1.07 0.77 0.62 0.72 0.96 1.14 1.22 1.29 1.29 1.26
1.25 1.15 0.84 0.73 0.56 0.48 0.44 0.55 0.74 0.69 0.68 0.69 0.79 0.78 1.01 1.22 1.15 0.91 1.00 1.24 1.24 1.21 1.10 1.09 1.09 0.90 0.72 0.68 1.17 1.49 1.09 1.11 1.19 0.92 0.75 0.83 1.11 1.40 1.63 1.54 1.38 1.25 1.17
1.39 1.25 1.01 0.97 0.86 0.70 0.80 0.74 0.86 1.01 1.11 0.98 0.96 1.03 1.37 1.30 1.07 1.06 1.15 1.37 1.58 1.52 1.42 1.57 1.66 1.36 1.30 1.53 1.85 1.75 1.34 1.36 1.33 1.12 0.92 1.10 1.47 1.88 2.12 1.98 1.68 1.41 1.22
1.71 1.53 1.32 1.17 1.06 1.01 0.99 0.93 0.95 0.99 1.13 1.08 1.22 1.23 1.44 1.64 1.56 1.54 1.64 1.66 1.78 1.91 2.18 2.11 2.16 1.99 1.89 1.82 1.97 1.77 1.57 1.60 1.51 1.64 1.66 1.67 1.74 2.00 2.43 2.35 1.99 1.69 1.50
2.22 2.08 1.88 1.56 1.52 1.45 1.47 1.44 1.22 1.22 1.29 1.40 1.58 1.62 1.60 1.78 1.82 1.89 1.91 1.94 1.82 1.93 2.11 2.35 2.26 2.36 2.41 2.20 1.92 1.79 1.86 1.86 1.94 1.93 1.86 2.06 1.98 1.96 2.41 2.52 2.24 1.96 1.80
2.90 2.90 2.69 2.35 2.29 2.18 1.94 1.81 1.74 1.60 1.70 1.76 1.84 1.86 1.87 2.08 2.22 2.16 1.99 2.01 1.92 1.96 2.04 2.23 2.32 2.65 2.61 2.52 2.10 1.92 1.95 2.02 2.02 2.12 2.04 2.32 2.21 1.93 2.15 2.39 2.48 2.32 2.10
3.20 3.36 3.35 3.19 3.16 3.00 2.68 2.34 2.12 2.07 1.98 2.12 2.22 2.19 2.24 2.29 2.43 2.34 2.20 2.03 2.04 2.09 2.21 2.25 2.39 2.66 2.64 2.52 2.30 2.12 2.02 1.86 1.75 1.81 1.88 2.08 2.02 1.87 1.94 2.14 2.40 2.47 2.34
3.48 3.67 3.88 3.82 3.81 3.56 3.25 2.93 2.67 2.48 2.39 2.37 2.36 2.39 2.32 2.45 2.49 2.48 2.26 2.00 2.15 2.12 2.23 2.46 2.56 2.72 2.86 2.86 2.57 2.28 2.10 1.92 1.73 1.68 1.63 1.64 1.80 1.51 1.72 1.97 2.15 2.28 2.54
3.85 4.22 4.56 4.61 4.50 4.12 3.68 3.42 3.30 3.07 2.82 2.63 2.62 2.51 2.43 2.47 2.38 2.45 2.25 2.14 2.24 2.37 2.38 2.23 2.68 2.93 2.97 2.96 2.49 2.31 1.96 1.80 1.62 1.48 1.50 1.36 1.43 1.43 1.48 1.58 1.77 1.90 2.36
4.36 4.93 4.95 4.87 5.10 4.85 4.46 4.18 3.91 3.51 3.18 2.90 2.75 2.59 2.40 2.31 2.24 2.46 2.16 2.14 2.33 2.50 2.49 2.55 2.88 2.99 2.84 2.94 2.51 2.13 1.78 1.44 1.37 1.31 1.21 1.16 1.12 1.03 1.11 1.37 1.70 1.58 1.98
4.19 4.73 5.25 5.28 5.16 4.91 4.55 4.07 3.70 3.33 3.14 2.90 2.64 2.44 2.38 2.35 2.39 2.69 2.38 2.50 2.45 2.41 2.44 2.59 2.77 2.70 2.54 2.89 2.93 2.24 1.54 1.16 1.10 0.95 0.93 0.95 0.88 0.90 1.13 1.46 1.65 1.73 1.58
3.60 4.05 4.44 4.66 4.31 3.86 3.63 3.55 3.41 3.38 3.03 2.87 2.81 2.78 2.55 2.55 2.48 2.46 2.53 2.44 2.46 2.48 2.30 2.37 2.63 2.50 2.14 2.51 2.76 2.71 2.01 1.52 1.11 0.70 0.77 0.80 0.83 1.01 1.08 1.14 1.43 1.74 1.65
3.04 3.22 3.36 3.49 3.48 3.42 3.47 3.57 3.62 3.70 3.39 3.25 3.15 3.01 2.69 2.60 2.51 2.51 2.35 2.23 2.30 2.25 2.13 2.11 2.30 2.39 2.18 2.15 2.48 2.84 2.31 1.70 1.31 0.86 0.80 0.80 1.00 1.26 1.26 1.25 1.35 1.55 1.62
2.39 2.64 3.06 3.19 3.27 3.44 3.67 3.66 3.64 3.51 3.38 3.36 3.44 3.40 3.29 3.04 2.77 2.55 2.32 2.17 2.05 1.95 1.98 1.77 1.99 2.13 2.21 1.91 2.04 2.12 2.00 1.93 1.85 1.35 1.00 0.93 1.15 1.28 1.31 1.29 1.33 1.47 1.55
2.02 2.28 2.76 3.23 3.43 3.61 3.81 3.87 4.04 3.88 3.67 3.51 3.53 3.57 3.35 3.13 2.86 2.55 2.41 2.27 2.13 1.96 1.86 1.78 1.91 1.85 1.85 1.78 1.86 1.86 1.86 1.84 1.75 1.68 1.38 1.26 1.20 0.97 0.98 1.07 1.27 1.57 1.63
2.16 2.38 2.68 3.09 3.40 3.58 3.69 3.72 3.74 3.67 3.58 3.36 3.24 2.99 2.68 2.57 2.46 2.29 2.20 2.10 1.96 1.94 1.93 1.88 1.82 1.76 1.77 1.82 1.81 1.76 1.81 1.83 1.81 1.88 1.64 1.44 1.31 1.08 1.04 1.08 1.20 1.39 1.48

GEFSSE_prec_meanprecacc_210.txt.gz
Total_Precipitation_Accumulation
0.36 0.39 0.52 0.37 0.31 0.34 0.39 0.46 0.52 0.48 0.47 0.48 0.42 0.37 0.36 0.35 0.30 0.29 0.31 0.36 0.42 0.48 0.52 0.61 0.72 0.79 0.85 0.80 0.73 0.66 0.68 0.74 0.88 0.89 0.89 0.90 1.02 1.25 1.41 1.41 1.43 0.92 0.78
0.20 0.25 0.38 0.31 0.28 0.31 0.34 0.42 0.47 0.44 0.41 0.41 0.40 0.37 0.37 0.36 0.35 0.34 0.37 0.43 0.47 0.48 0.52 0.60 0.65 0.65 0.63 0.62 0.59 0.55 0.63 0.82 1.05 1.16 1.21 1.11 1.23 1.41 1.44 1.37 1.48 0.84 0.79
0.12 0.14 0.20 0.24 0.23 0.25 0.27 0.34 0.39 0.37 0.33 0.32 0.33 0.34 0.38 0.41 0.40 0.39 0.41 0.46 0.48 0.51 0.49 0.51 0.51 0.51 0.51 0.54 0.56 0.61 0.69 0.98 1.35 1.59 1.77 1.41 0.98 1.34 1.40 1.29 1.11 0.73 0.80
0.08 0.10 0.12 0.19 0.19 0.20 0.23 0.29 0.37 0.36 0.32 0.31 0.32 0.33 0.35 0.41 0.48 0.49 0.49 0.54 0.54 0.54 0.49 0.46 0.43 0.42 0.45 0.50 0.57 0.68 0.82 1.04 1.37 1.85 2.07 1.28 0.70 0.88 1.02 0.94 0.88 0.76 0.75
0.06 0.08 0.15 0.18 0.16 0.16 0.19 0.26 0.35 0.32 0.29 0.28 0.29 0.34 0.37 0.42 0.48 0.53 0.55 0.55 0.53 0.52 0.47 0.41 0.35 0.34 0.38 0.44 0.56 0.69 0.83 1.05 1.36 1.61 1.36 1.26 1.06 0.91 0.82 0.76 0.78 0.73 0.63
0.07 0.08 0.12 0.17 0.16 0.14 0.16 0.22 0.31 0.31 0.28 0.30 0.33 0.37 0.40 0.42 0.46 0.48 0.46 0.47 0.49 0.48 0.46 0.41 0.32 0.36 0.43 0.48 0.60 0.70 0.81 1.05 1.25 0.98 0.85 1.03 0.89 0.90 0.87 0.89 0.91 0.79 0.64
0.08 0.08 0.10 0.16 0.17 0.16 0.17 0.22 0.26 0.31 0.30 0.30 0.32 0.33 0.38 0.41 0.46 0.45 0.40 0.41 0.46 0.46 0.42 0.37 0.34 0.40 0.45 0.50 0.58 0.67 0.89 1.09 1.05 0.76 0.79 1.02 0.76 0.69 0.88 1.04 1.15 0.97 0.78
0.13 0.09 0.12 0.19 0.22 0.22 0.22 0.26 0.27 0.28 0.30 0.34 0.32 0.29 0.31 0.35 0.38 0.41 0.41 0.41 0.43 0.46 0.40 0.35 0.40 0.44 0.48 0.52 0.55 0.61 0.82 0.93 0.79 0.69 0.71 0.74 0.51 0.61 0.86 1.08 1.24 1.15 0.99
0.24 0.22 0.19 0.23 0.27 0.30 0.32 0.31 0.33 0.32 0.32 0.35 0.35 0.33 0.33 0.33 0.34 0.37 0.46 0.47 0.44 0.44 0.43 0.36 0.37 0.40 0.41 0.43 0.51 0.61 0.78 0.94 0.84 0.74 0.60 0.55 0.48 0.64 0.92 1.08 1.16 1.20 1.12
0.58 0.44 0.30 0.29 0.34 0.33 0.31 0.37 0.42 0.38 0.37 0.37 0.35 0.35 0.36 0.37 0.38 0.43 0.48 0.53 0.55 0.53 0.50 0.43 0.37 0.38 0.44 0.49 0.58 0.74 0.89 0.85 0.77 0.82 0.80 0.59 0.58 0.74 0.94 1.05 1.22 1.28 1.19
1.08 0.90 0.56 0.44 0.44 0.47 0.40 0.40 0.53 0.51 0.44 0.44 0.47 0.48 0.64 0.79 0.70 0.80 0.74 0.79 0.78 0.73 0.69 0.64 0.61 0.58 0.55 0.51 0.66 0.89 0.87 0.81 1.04 1.09 0.79 0.63 0.73 0.97 1.14 1.23 1.30 1.30 1.27
1.27 1.16 0.85 0.74 0.57 0.51 0.47 0.58 0.80 0.75 0.74 0.78 0.88 0.86 1.13 1.33 1.23 0.95 1.04 1.27 1.26 1.22 1.11 1.10 1.10 0.92 0.74 0.70 1.18 1.50 1.13 1.14 1.20 0.93 0.77 0.85 1.11 1.40 1.64 1.55 1.40 1.27 1.18
1.42 1.27 1.03 0.98 0.87 0.72 0.84 0.77 0.90 1.07 1.20 1.08 1.02 1.09 1.42 1.34 1.11 1.10 1.20 1.40 1.61 1.54 1.44 1.60 1.69 1.40 1.32 1.56 1.88 1.76 1.37 1.40 1.36 1.18 0.97 1.12 1.48 1.89 2.13 1.99 1.70 1.43 1.24
1.73 1.55 1.33 1.19 1.07 1.03 1.03 0.96 0.98 1.03 1.19 1.20 1.29 1.28 1.49 1.69 1.62 1.61 1.71 1.71 1.82 1.95 2.22 2.15 2.20 2.01 1.90 1.83 1.97 1.78 1.59 1.61 1.53 1.73 1.76 1.70 1.76 2.02 2.44 2.36 2.01 1.70 1.52
2.23 2.10 1.89 1.57 1.53 1.47 1.49 1.50 1.25 1.26 1.34 1.51 1.64 1.67 1.66 1.84 1.87 1.95 1.96 1.99 1.85 1.95 2.14 2.39 2.30 2.39 2.44 2.22 1.94 1.81 1.88 1.88 1.95 1.95 1.90 2.09 2.00 1.98 2.43 2.54 2.26 1.98 1.83
2.91 2.93 2.71 2.36 2.30 2.19 1.97 1.86 1.77 1.63 1.75 1.81 1.90 1.92 1.92 2.14 2.29 2.22 2.05 2.07 1.96 1.99 2.08 2.27 2.36 2.70 2.64 2.55 2.13 1.93 1.96 2.04 2.05 2.14 2.07 2.37 2.23 1.94 2.16 2.41 2.50 2.35 2.12
3.21 3.38 3.38 3.21 3.17 3.01 2.71 2.38 2.16 2.10 2.02 2.19 2.28 2.23 2.28 2.33 2.48 2.40 2.27 2.09 2.08 2.11 2.24 2.29 2.42 2.72 2.69 2.56 2.33 2.15 2.04 1.89 1.79 1.85 1.92 2.11 2.04 1.90 1.96 2.15 2.41 2.49 2.37
3.49 3.69 3.90 3.85 3.84 3.60 3.31 2.98 2.72 2.51 2.43 2.42 2.41 2.43 2.35 2.47 2.52 2.55 2.33 2.06 2.19 2.15 2.26 2.51 2.63 2.79 2.93 2.91 2.64 2.35 2.13 1.98 1.80 1.76 1.68 1.67 1.84 1.54 1.75 1.98 2.17 2.29 2.56
3.86 4.23 4.58 4.64 4.55 4.17 3.74 3.47 3.35 3.11 2.87 2.68 2.65 2.54 2.46 2.49 2.41 2.51 2.32 2.21 2.29 2.44 2.45 2.29 2.78 3.02 3.06 3.05 2.55 2.39 2.02 1.87 1.71 1.54 1.53 1.39 1.46 1.46 1.51 1.61 1.79 1.92 2.38
4.36 4.94 4.96 4.90 5.14 4.90 4.52 4.25 3.99 3.57 3.23 2.94 2.79 2.65 2.45 2.35 2.28 2.51 2.23 2.20 2.38 2.57 2.58 2.64 2.99 3.09 2.95 3.07 2.60 2.23 1.85 1.51 1.42 1.37 1.25 1.19 1.15 1.07 1.16 1.44 1.79 1.64 2.03
4.19 4.74 5.26 5.31 5.20 4.96 4.62 4.14 3.77 3.39 3.18 2.93 2.69 2.49 2.42 2.37 2.43 2.76 2.44 2.58 2.50 2.49 2.52 2.69 2.89 2.84 2.69 3.04 3.07 2.38 1.63 1.23 1.18 1.02 0.99 0.99 0.91 0.95 1.17 1.56 1.83 1.86 1.65
3.60 4.06 4.45 4.68 4.35 3.91 3.69 3.62 3.48 3.44 3.06 2.91 2.86 2.83 2.58 2.58 2.54 2.52 2.62 2.53 2.54 2.57 2.39 2.46 2.74 2.60 2.25 2.63 2.91 2.86 2.13 1.62 1.20 0.76 0.83 0.85 0.87 1.05 1.12 1.19 1.50 1.82 1.74
3.05 3.22 3.37 3.50 3.52 3.47 3.53 3.65 3.69 3.77 3.44 3.30 3.22 3.09 2.74 2.65 2.57 2.58 2.45 2.35 2.41 2.33 2.24 2.22 2.40 2.49 2.29 2.27 2.60 2.97 2.44 1.85 1.42 0.93 0.87 0.85 1.05 1.31 1.31 1.32 1.43 1.63 1.70
2.40 2.66 3.08 3.21 3.32 3.50 3.73 3.73 3.71 3.58 3.44 3.43 3.52 3.49 3.36 3.10 2.82 2.59 2.40 2.27 2.16 2.05 2.10 1.86 2.09 2.26 2.33 2.02 2.15 2.25 2.15 2.08 2.00 1.45 1.07 0.98 1.22 1.35 1.37 1.37 1.43 1.58 1.66
2.03 2.31 2.78 3.26 3.49 3.66 3.86 3.93 4.11 3.94 3.73 3.59 3.62 3.66 3.45 3.22 2.92 2.60 2.47 2.35 2.21 2.05 1.95 1.88 2.03 1.97 1.97 1.90 1.98 2.00 2.01 2.00 1.91 1.82 1.49 1.35 1.27 1.04 1.05 1.15 1.36 1.66 1.74
2.16 2.39 2.70 3.13 3.46 3.65 3.75 3.79 3.81 3.76 3.69 3.47 3.35 3.10 2.77 2.66 2.53 2.34 2.27 2.18 2.04 2.02 2.01 1.95 1.91 1.86 1.88 1.95 1.93 1.88 1.94 1.96 1.95 2.04 1.78 1.56 1.40 1.16 1.11 1.15 1.28 1.47 1.55

GEFSSE_prec_meanprecacc_216.txt.gz
Total_Precipitation_Accumulation
0.47 0.49 0.59 0.46 0.40 0.44 0.50 0.59 0.66 0.61 0.59 0.58 0.51 0.45 0.43 0.42 0.37 0.35 0.39 0.43 0.49 0.56 0.62 0.72 0.82 0.89 0.94 0.87 0.80 0.74 0.76 0.80 0.94 0.96 0.95 0.96 1.06 1.27 1.44 1.44 1.45 0.93 0.81
0.25 0.30 0.44 0.37 0.34 0.40 0.48 0.59 0.64 0.60 0.55 0.53 0.50 0.46 0.43 0.42 0.40 0.40 0.43 0.49 0.52 0.55 0.61 0.69 0.74 0.73 0.71 0.69 0.65 0.62 0.70 0.88 1.12 1.22 1.26 1.16 1.26 1.44 1.48 1.41 1.50 0.86 0.80
0.15 0.17 0.23 0.27 0.25 0.28 0.34 0.42 0.48 0.45 0.41 0.41 0.42 0.41 0.43 0.46 0.45 0.44 0.47 0.51 0.53 0.57 0.55 0.56 0.58 0.57 0.57 0.61 0.62 0.67 0.76 1.06 1.42 1.66 1.82 1.43 1.00 1.38 1.45 1.32 1.14 0.75 0.82
0.10 0.11 0.13 0.20 0.21 0.22 0.25 0.32 0.40 0.39 0.37 0.37 0.38 0.38 0.39 0.45 0.52 0.52 0.55 0.58 0.58 0.59 0.53 0.51 0.48 0.46 0.49 0.55 0.61 0.74 0.88 1.10 1.43 1.91 2.10 1.29 0.71 0.91 1.05 0.96 0.90 0.78 0.77
0.07 0.09 0.16 0.19 0.17 0.17 0.20 0.28 0.37 0.35 0.32 0.32 0.33 0.38 0.41 0.46 0.52 0.57 0.60 0.59 0.55 0.54 0.50 0.45 0.39 0.38 0.42 0.48 0.60 0.73 0.88 1.12 1.43 1.66 1.40 1.28 1.08 0.93 0.83 0.77 0.79 0.74 0.64
0.07 0.10 0.14 0.18 0.17 0.15 0.17 0.23 0.32 0.33 0.30 0.32 0.35 0.40 0.42 0.44 0.49 0.51 0.50 0.50 0.51 0.50 0.48 0.43 0.34 0.38 0.46 0.52 0.64 0.74 0.86 1.12 1.32 1.02 0.87 1.05 0.90 0.92 0.88 0.90 0.91 0.81 0.66
0.09 0.09 0.12 0.17 0.17 0.17 0.18 0.23 0.27 0.32 0.31 0.31 0.34 0.35 0.39 0.43 0.48 0.47 0.42 0.43 0.48 0.48 0.43 0.38 0.35 0.42 0.48 0.54 0.61 0.71 0.95 1.16 1.11 0.79 0.81 1.02 0.77 0.70 0.88 1.05 1.15 0.98 0.79
0.14 0.09 0.13 0.20 0.22 0.23 0.22 0.26 0.29 0.29 0.31 0.35 0.33 0.30 0.33 0.37 0.39 0.43 0.43 0.43 0.46 0.48 0.42 0.36 0.42 0.46 0.50 0.54 0.57 0.65 0.87 1.00 0.83 0.71 0.72 0.75 0.52 0.62 0.87 1.09 1.24 1.15 0.99
0.25 0.22 0.20 0.23 0.27 0.31 0.33 0.32 0.36 0.34 0.33 0.37 0.36 0.35 0.35 0.35 0.35 0.38 0.48 0.49 0.45 0.45 0.44 0.37 0.38 0.41 0.42 0.45 0.53 0.65 0.86 1.01 0.87 0.77 0.61 0.56 0.48 0.65 0.93 1.08 1.17 1.20 1.12
0.60 0.45 0.30 0.29 0.34 0.33 0.31 0.39 0.45 0.40 0.39 0.38 0.37 0.37 0.39 0.40 0.40 0.44 0.49 0.55 0.57 0.54 0.50 0.43 0.38 0.40 0.45 0.51 0.61 0.79 0.95 0.91 0.83 0.86 0.83 0.61 0.59 0.75 0.94 1.05 1.23 1.29 1.20
1.14 0.93 0.58 0.45 0.45 0.48 0.41 0.42 0.54 0.53 0.47 0.47 0.50 0.51 0.66 0.80 0.72 0.82 0.75 0.81 0.81 0.75 0.70 0.65 0.62 0.59 0.56 0.53 0.69 0.94 0.92 0.86 1.11 1.15 0.82 0.64 0.74 0.98 1.14 1.23 1.31 1.30 1.28
1.32 1.20 0.89 0.76 0.59 0.53 0.48 0.60 0.82 0.78 0.80 0.84 0.92 0.89 1.15 1.35 1.24 0.98 1.08 1.30 1.29 1.25 1.13 1.12 1.12 0.93 0.75 0.73 1.22 1.57 1.20 1.24 1.30 0.99 0.80 0.87 1.13 1.42 1.65 1.55 1.40 1.27 1.19
1.46 1.31 1.08 1.00 0.89 0.73 0.85 0.80 0.94 1.15 1.29 1.15 1.06 1.13 1.45 1.38 1.14 1.14 1.24 1.43 1.63 1.56 1.46 1.62 1.72 1.43 1.36 1.61 1.95 1.87 1.45 1.47 1.42 1.25 1.01 1.15 1.50 1.91 2.14 2.00 1.71 1.44 1.25
1.77 1.60 1.41 1.21 1.08 1.05 1.05 1.00 1.05 1.12 1.28 1.28 1.34 1.33 1.53 1.73 1.65 1.66 1.75 1.74 1.84 1.98 2.25 2.17 2.23 2.05 1.94 1.87 2.01 1.83 1.65 1.68 1.60 1.79 1.81 1.72 1.78 2.05 2.47 2.39 2.03 1.72 1.53
2.26 2.14 1.93 1.58 1.54 1.48 1.52 1.54 1.31 1.31 1.40 1.62 1.76 1.72 1.70 1.87 1.90 1.97 1.99 2.02 1.89 1.99 2.18 2.43 2.34 2.43 2.47 2.26 1.98 1.85 1.94 1.94 2.03 1.99 1.94 2.12 2.04 2.02 2.46 2.57 2.29 2.00 1.85
2.92 2.94 2.73 2.38 2.31 2.19 1.98 1.89 1.81 1.67 1.79 1.86 1.95 1.95 1.95 2.16 2.31 2.25 2.08 2.09 1.99 2.01 2.11 2.31 2.41 2.73 2.68 2.60 2.18 1.99 2.03 2.10 2.10 2.19 2.12 2.39 2.25 1.97 2.19 2.44 2.54 2.39 2.15
3.21 3.38 3.39 3.23 3.19 3.03 2.72 2.40 2.19 2.14 2.06 2.22 2.31 2.25 2.30 2.34 2.49 2.42 2.29 2.11 2.11 2.14 2.28 2.34 2.45 2.75 2.74 2.64 2.44 2.26 2.17 1.96 1.83 1.90 1.96 2.14 2.07 1.92 1.98 2.18 2.45 2.53 2.41
3.50 3.69 3.91 3.86 3.86 3.62 3.32 2.99 2.74 2.54 2.46 2.45 2.43 2.44 2.37 2.49 2.54 2.56 2.34 2.09 2.21 2.18 2.30 2.57 2.67 2.82 2.97 2.97 2.71 2.44 2.27 2.08 1.86 1.81 1.73 1.73 1.90 1.58 1.78 2.02 2.22 2.34 2.60
3.86 4.23 4.58 4.65 4.56 4.19 3.76 3.49 3.37 3.13 2.89 2.71 2.68 2.58 2.50 2.51 2.43 2.53 2.33 2.22 2.30 2.46 2.50 2.33 2.81 3.06 3.10 3.08 2.59 2.46 2.09 1.94 1.77 1.61 1.61 1.48 1.56 1.56 1.63 1.72 1.86 1.97 2.44
4.37 4.95 4.98 4.91 5.16 4.91 4.53 4.26 4.00 3.59 3.24 2.96 2.81 2.68 2.48 2.38 2.31 2.55 2.25 2.22 2.39 2.60 2.62 2.67 3.03 3.13 2.99 3.11 2.65 2.29 1.89 1.56 1.48 1.45 1.34 1.28 1.25 1.21 1.29 1.62 1.92 1.73 2.11
4.20 4.75 5.27 5.33 5.21 4.98 4.63 4.16 3.80 3.41 3.19 2.95 2.71 2.51 2.44 2.40 2.46 2.79 2.47 2.61 2.52 2.52 2.55 2.71 2.93 2.88 2.73 3.08 3.12 2.41 1.66 1.27 1.22 1.08 1.06 1.08 1.02 1.05 1.28 1.69 1.96 1.98 1.74
3.61 4.06 4.45 4.69 4.37 3.94 3.73 3.66 3.51 3.47 3.08 2.93 2.89 2.88 2.63 2.63 2.59 2.56 2.66 2.56 2.58 2.60 2.42 2.49 2.78 2.64 2.30 2.67 2.96 2.93 2.17 1.66 1.23 0.81 0.90 0.93 0.98 1.15 1.22 1.30 1.64 1.97 1.89
3.06 3.23 3.37 3.51 3.54 3.51 3.58 3.68 3.71 3.80 3.47 3.34 3.26 3.15 2.79 2.69 2.61 2.61 2.49 2.39 2.45 2.37 2.27 2.25 2.43 2.53 2.34 2.32 2.66 3.04 2.48 1.87 1.44 0.98 0.91 0.90 1.11 1.41 1.42 1.43 1.54 1.78 1.91
2.42 2.68 3.09 3.23 3.35 3.53 3.76 3.76 3.73 3.61 3.48 3.48 3.56 3.55 3.42 3.15 2.86 2.63 2.43 2.29 2.19 2.09 2.14 1.90 2.14 2.31 2.38 2.07 2.20 2.32 2.20 2.14 2.05 1.48 1.10 1.01 1.26 1.43 1.47 1.48 1.52 1.69 1.83
2.05 2.33 2.80 3.29 3.52 3.69 3.89 3.96 4.14 3.96 3.77 3.64 3.67 3.71 3.50 3.27 2.96 2.64 2.52 2.39 2.24 2.08 1.99 1.92 2.09 2.02 2.04 1.97 2.04 2.06 2.07 2.07 1.98 1.86 1.52 1.37 1.30 1.09 1.12 1.24 1.45 1.73 1.83
2.20 2.42 2.75 3.17 3.49 3.68 3.80 3.84 3.85 3.79 3.73 3.51 3.39 3.14 2.82 2.70 2.57 2.38 2.30 2.21 2.07 2.04 2.03 1.98 1.95 1.92 1.96 2.03 2.00 1.95 2.01 2.02 2.01 2.10 1.82 1.60 1.44 1.21 1.16 1.21 1.36 1.53 1.63

GEFSSE_prec_meanprecacc_222.txt.gz
Total_Precipitation_Accumulation
0.59 0.60 0.70 0.55 0.52 0.56 0.63 0.71 0.77 0.71 0.69 0.70 0.62 0.56 0.55 0.54 0.49 0.46 0.51 0.57 0.65 0.71 0.77 0.85 0.95 1.01 1.03 0.95 0.88 0.83 0.91 0.94 1.08 1.05 1.01 1.01 1.10 1.30 1.47 1.47 1.48 0.95 0.84
0.33 0.37 0.52 0.43 0.47 0.58 0.64 0.74 0.77 0.71 0.69 0.67 0.63 0.58 0.56 0.55 0.53 0.50 0.53 0.60 0.65 0.67 0.72 0.79 0.83 0.84 0.79 0.75 0.71 0.71 0.83 1.00 1.23 1.30 1.32 1.21 1.30 1.47 1.51 1.43 1.51 0.87 0.83
0.20 0.22 0.28 0.32 0.32 0.38 0.46 0.55 0.60 0.57 0.55 0.57 0.57 0.53 0.55 0.55 0.53 0.52 0.54 0.59 0.63 0.67 0.65 0.66 0.66 0.64 0.64 0.68 0.69 0.75 0.85 1.17 1.52 1.72 1.86 1.47 1.04 1.43 1.50 1.34 1.16 0.78 0.84
0.12 0.13 0.16 0.24 0.25 0.27 0.34 0.44 0.57 0.56 0.53 0.53 0.49 0.47 0.47 0.51 0.57 0.58 0.60 0.65 0.67 0.67 0.62 0.60 0.55 0.51 0.54 0.61 0.68 0.82 0.95 1.17 1.48 1.94 2.11 1.30 0.74 0.96 1.08 0.98 0.92 0.80 0.79
0.08 0.11 0.19 0.22 0.20 0.21 0.25 0.35 0.46 0.44 0.41 0.41 0.41 0.44 0.46 0.51 0.56 0.61 0.64 0.65 0.62 0.61 0.58 0.53 0.46 0.44 0.46 0.53 0.65 0.80 0.94 1.17 1.47 1.68 1.40 1.29 1.10 0.97 0.86 0.78 0.80 0.75 0.65
0.09 0.11 0.17 0.21 0.19 0.18 0.21 0.28 0.36 0.37 0.35 0.37 0.40 0.44 0.46 0.49 0.54 0.55 0.54 0.55 0.57 0.56 0.54 0.51 0.42 0.45 0.51 0.57 0.69 0.80 0.91 1.17 1.36 1.04 0.88 1.05 0.92 0.96 0.90 0.91 0.93 0.82 0.67
0.11 0.11 0.15 0.21 0.20 0.18 0.21 0.26 0.31 0.35 0.34 0.35 0.38 0.39 0.43 0.48 0.52 0.51 0.45 0.47 0.52 0.53 0.49 0.44 0.42 0.47 0.52 0.57 0.66 0.77 1.00 1.21 1.13 0.80 0.82 1.03 0.79 0.74 0.91 1.06 1.17 1.00 0.80
0.16 0.10 0.14 0.23 0.24 0.25 0.25 0.29 0.33 0.31 0.34 0.38 0.37 0.33 0.36 0.41 0.43 0.46 0.46 0.46 0.50 0.52 0.47 0.41 0.47 0.50 0.54 0.58 0.62 0.69 0.91 1.03 0.84 0.72 0.73 0.76 0.55 0.67 0.91 1.11 1.27 1.16 1.00
0.27 0.23 0.20 0.24 0.28 0.33 0.36 0.35 0.38 0.36 0.35 0.39 0.39 0.37 0.38 0.39 0.38 0.41 0.51 0.53 0.50 0.49 0.47 0.41 0.42 0.44 0.45 0.49 0.58 0.69 0.90 1.05 0.89 0.79 0.64 0.58 0.51 0.68 0.95 1.09 1.19 1.21 1.13
0.61 0.46 0.31 0.29 0.35 0.34 0.33 0.42 0.48 0.44 0.41 0.40 0.40 0.41 0.42 0.43 0.43 0.47 0.51 0.59 0.61 0.56 0.52 0.46 0.41 0.42 0.48 0.55 0.65 0.83 1.01 0.94 0.84 0.89 0.85 0.62 0.61 0.76 0.95 1.06 1.24 1.30 1.21
1.14 0.95 0.59 0.46 0.46 0.49 0.42 0.44 0.57 0.57 0.49 0.49 0.52 0.56 0.70 0.82 0.73 0.83 0.76 0.85 0.84 0.77 0.72 0.68 0.65 0.63 0.60 0.56 0.73 0.99 0.96 0.87 1.12 1.19 0.84 0.65 0.76 1.00 1.16 1.25 1.33 1.32 1.29
1.34 1.23 0.92 0.78 0.60 0.54 0.49 0.62 0.84 0.79 0.81 0.85 0.93 0.91 1.16 1.35 1.25 0.98 1.10 1.33 1.33 1.29 1.16 1.15 1.15 0.96 0.78 0.75 1.25 1.61 1.23 1.26 1.33 1.02 0.83 0.89 1.17 1.45 1.67 1.58 1.43 1.30 1.21
1.48 1.36 1.12 1.02 0.90 0.74 0.86 0.82 0.96 1.16 1.30 1.15 1.06 1.13 1.46 1.38 1.14 1.15 1.25 1.44 1.65 1.58 1.47 1.63 1.73 1.45 1.39 1.65 1.97 1.89 1.48 1.49 1.44 1.27 1.03 1.19 1.56 1.97 2.19 2.04 1.74 1.48 1.28
1.78 1.62 1.42 1.23 1.10 1.07 1.07 1.02 1.07 1.13 1.29 1.29 1.34 1.34 1.54 1.73 1.66 1.67 1.77 1.75 1.85 2.00 2.26 2.19 2.25 2.07 1.97 1.90 2.04 1.86 1.69 1.70 1.62 1.81 1.85 1.79 1.87 2.14 2.55 2.46 2.10 1.77 1.58
2.29 2.17 1.95 1.61 1.56 1.51 1.56 1.57 1.33 1.33 1.42 1.63 1.78 1.73 1.71 1.89 1.92 1.99 2.01 2.04 1.91 2.02 2.21 2.46 2.37 2.44 2.49 2.28 2.01 1.90 1.98 1.96 2.05 2.02 1.99 2.20 2.12 2.12 2.57 2.68 2.39 2.07 1.90
2.95 2.96 2.74 2.39 2.32 2.22 2.01 1.92 1.84 1.69 1.81 1.88 1.97 1.97 1.97 2.18 2.33 2.27 2.10 2.12 2.02 2.05 2.15 2.35 2.44 2.77 2.73 2.67 2.28 2.07 2.10 2.12 2.14 2.24 2.18 2.44 2.32 2.05 2.28 2.53 2.61 2.46 2.21
3.22 3.39 3.39 3.23 3.20 3.04 2.73 2.42 2.21 2.16 2.08 2.24 2.33 2.27 2.32 2.36 2.51 2.43 2.31 2.13 2.13 2.18 2.32 2.38 2.49 2.79 2.79 2.71 2.52 2.34 2.24 2.00 1.89 1.96 2.01 2.17 2.11 1.98 2.07 2.27 2.55 2.64 2.51
3.50 3.70 3.92 3.87 3.86 3.63 3.33 3.01 2.76 2.57 2.49 2.48 2.46 2.46 2.38 2.51 2.56 2.58 2.36 2.11 2.24 2.21 2.34 2.61 2.71 2.86 3.01 3.01 2.76 2.50 2.33 2.14 1.93 1.88 1.79 1.78 1.95 1.63 1.84 2.10 2.32 2.46 2.71
3.87 4.24 4.60 4.66 4.57 4.21 3.78 3.53 3.42 3.17 2.93 2.75 2.72 2.61 2.52 2.55 2.48 2.55 2.35 2.24 2.33 2.49 2.53 2.38 2.85 3.10 3.15 3.13 2.63 2.50 2.13 1.99 1.84 1.68 1.67 1.56 1.63 1.63 1.69 1.76 1.93 2.06 2.56
4.38 4.97 5.00 4.94 5.18 4.94 4.58 4.32 4.06 3.63 3.28 2.99 2.85 2.72 2.53 2.43 2.37 2.58 2.28 2.24 2.42 2.63 2.64 2.70 3.08 3.17 3.03 3.15 2.69 2.31 1.92 1.60 1.53 1.50 1.40 1.40 1.36 1.30 1.37 1.67 1.98 1.79 2.20
4.23 4.77 5.30 5.37 5.24 5.05 4.73 4.25 3.85 3.45 3.23 2.98 2.75 2.56 2.49 2.45 2.51 2.85 2.51 2.65 2.56 2.56 2.59 2.75 2.97 2.92 2.77 3.13 3.15 2.44 1.69 1.29 1.24 1.12 1.11 1.15 1.08 1.11 1.35 1.77 2.05 2.05 1.81
3.67 4.10 4.48 4.72 4.42 4.07 3.84 3.72 3.56 3.50 3.12 2.96 2.92 2.93 2.69 2.69 2.64 2.62 2.72 2.60 2.62 2.65 2.46 2.54 2.82 2.68 2.34 2.72 3.01 2.97 2.20 1.68 1.26 0.84 0.93 0.97 1.02 1.19 1.26 1.35 1.71 2.06 1.96
3.14 3.27 3.39 3.56 3.61 3.60 3.62 3.71 3.74 3.83 3.51 3.37 3.30 3.18 2.83 2.74 2.66 2.67 2.55 2.44 2.49 2.42 2.33 2.30 2.47 2.58 2.39 2.38 2.73 3.08 2.51 1.89 1.46 1.01 0.94 0.92 1.14 1.44 1.45 1.47 1.60 1.84 1.97
2.45 2.70 3.12 3.28 3.40 3.58 3.80 3.79 3.76 3.64 3.52 3.52 3.63 3.60 3.46 3.20 2.92 2.69 2.49 2.35 2.24 2.14 2.20 1.97 2.21 2.37 2.44 2.14 2.27 2.36 2.24 2.17 2.08 1.52 1.13 1.04 1.30 1.47 1.51 1.52 1.58 1.73 1.87
2.07 2.35 2.84 3.34 3.57 3.74 3.92 3.98 4.17 3.99 3.80 3.69 3.74 3.79 3.57 3.33 3.03 2.70 2.59 2.46 2.30 2.14 2.06 2.00 2.16 2.09 2.10 2.04 2.10 2.11 2.12 2.12 2.02 1.89 1.54 1.40 1.33 1.13 1.15 1.27 1.48 1.76 1.85
2.23 2.47 2.82 3.23 3.55 3.73 3.85 3.87 3.88 3.83 3.77 3.56 3.45 3.21 2.87 2.75 2.63 2.44 2.36 2.28 2.14 2.10 2.08 2.04 2.02 1.99 2.03 2.10 2.07 2.01 2.07 2.09 2.08 2.15 1.86 1.63 1.47 1.24 1.19 1.24 1.38 1.55 1.64